Wind_Speed
16 16 15 15 14 14 13 12 11 11 9 9 8 8 7 5 5 6 7 6 7 8 7 5 6 6 10 14 21 26 31 24 19 20 15 15 5 7 8 7 6 6 6 5 6
16 16 16 15 14 13 13 12 12 11 10 9 8 7 6 5 4 5 6 5 6 6 5 5 6 8 18 8 7 16 15 17 20 20 16 14 12 4 6 6 4 4 4 4 4
18 17 17 16 15 14 14 13 12 12 11 10 8 7 6 5 4 4 5 4 4 4 4 3 6 12 11 7 5 4 14 17 18 15 11 13 6 7 7 3 4 1 4 3 3
19 19 19 18 17 16 15 14 13 12 12 11 10 8 8 7 5 4 3 3 2 3 3 5 2 15 18 13 11 10 10 18 17 14 13 10 4 5 5 2 5 2 4 4 3
21 21 21 20 18 18 17 15 14 13 13 13 12 11 10 9 7 3 2 2 1 2 3 4 1 7 8 25 14 12 11 14 17 14 11 7 5 10 4 2 3 4 4 5 5
23 22 22 22 20 19 18 17 15 14 15 14 14 13 12 10 8 5 3 0 2 2 3 1 5 7 8 2 6 5 9 13 14 15 11 9 9 5 5 4 5 7 7 7 6
25 24 22 22 22 21 21 20 18 17 14 13 12 12 11 11 9 7 5 3 2 3 2 2 3 1 10 5 6 12 8 6 12 13 13 9 7 12 10 7 7 7 6 5 5
27 27 26 24 23 22 21 20 19 18 17 15 14 12 11 10 9 9 7 5 3 4 2 1 4 3 12 13 5 15 15 13 14 12 8 10 8 11 8 7 6 5 5 4 4
31 30 29 28 26 25 24 22 20 20 19 17 15 13 11 11 9 9 9 7 5 4 4 3 3 2 10 11 17 8 15 17 14 12 7 4 14 8 3 2 2 3 2 3 2
32 32 32 31 30 29 27 26 25 24 21 20 18 14 11 11 11 10 9 8 7 6 6 4 2 10 4 17 10 15 15 13 12 13 5 7 2 7 4 2 4 3 3 4 2
28 29 30 31 31 31 29 29 28 27 24 24 19 19 13 13 12 11 10 9 7 8 7 6 5 10 5 12 8 8 7 15 3 8 5 11 12 9 5 5 6 5 6 6 4
29 28 28 27 28 30 31 31 29 27 26 26 24 24 18 19 15 12 11 9 10 10 11 9 5 16 8 12 17 5 16 17 8 3 4 4 8 10 4 4 4 3 4 7 7
30 30 29 29 28 28 27 28 29 28 28 29 26 25 24 23 21 16 14 12 10 13 11 10 7 7 12 12 13 4 14 16 11 7 16 13 11 13 10 5 6 2 4 6 7
32 31 30 29 29 30 29 27 26 26 27 28 28 28 25 24 23 21 17 16 12 12 14 12 9 16 19 9 17 4 20 20 16 12 13 23 25 11 17 9 5 10 10 12 12
30 29 29 30 30 29 27 28 26 25 21 31 32 25 26 24 28 22 22 19 13 14 16 11 14 16 17 11 24 13 15 22 13 12 16 26 22 25 3 10 2 6 12 12 11
29 28 27 27 28 27 26 25 25 24 21 29 31 24 27 25 27 27 25 21 18 18 18 17 16 19 15 14 20 14 19 9 5 8 27 23 11 14 23 3 8 10 13 12 13
28 29 29 28 27 26 26 24 24 23 24 25 28 27 24 25 27 27 24 24 20 19 16 17 17 17 17 15 16 16 12 8 12 19 13 16 11 9 11 17 3 7 12 13 9
27 28 27 28 28 28 27 27 26 17 19 18 29 25 23 23 26 28 27 26 23 21 17 16 17 16 14 18 15 15 16 15 19 29 28 33 14 12 9 6 13 7 7 8 9
24 26 26 27 26 26 27 29 23 26 15 19 23 22 21 22 23 27 28 26 24 23 22 14 14 14 24 19 18 13 19 18 16 17 16 25 7 3 24 18 20 6 7 8 9
23 23 22 24 25 25 26 22 25 22 31 37 27 12 13 16 20 25 26 24 25 24 23 21 19 12 18 24 20 18 14 15 15 14 13 18 22 18 19 23 8 15 13 9 10
23 24 21 21 21 22 20 22 24 31 35 28 21 23 15 13 19 21 24 21 19 23 23 23 24 14 15 24 17 19 19 19 15 23 17 12 20 13 24 21 12 22 20 9 9
23 25 22 22 21 20 20 20 26 24 29 22 25 33 29 27 14 16 17 18 18 22 25 23 22 23 17 19 22 20 18 19 17 13 8 10 8 5 2 9 18 21 21 16 12
23 25 22 22 19 19 19 21 25 26 23 18 24 27 25 30 24 22 18 18 18 22 25 23 26 27 21 19 21 21 24 21 20 18 17 26 17 6 16 26 14 20 11 15 19
24 25 25 24 23 22 23 16 24 23 23 24 25 25 27 30 31 23 13 12 22 30 32 29 26 25 23 17 17 22 22 24 25 21 16 23 20 7 15 17 12 21 20 12 14
26 28 32 28 22 21 22 22 17 18 23 24 26 28 28 27 25 22 17 15 25 25 27 29 31 27 24 21 19 22 24 22 26 27 26 20 22 30 14 46 10 25 25 20 17
27 32 27 26 28 30 28 25 21 16 16 16 25 25 25 26 27 16 25 14 18 18 23 29 30 27 25 23 24 21 21 23 24 26 34 25 21 22 26 16 15 26 27 20 15
20 23 29 30 30 27 24 24 22 18 21 22 21 21 23 18 26 33 34 31 31 30 33 29 24 21 25 20 23 26 27 23 23 26 25 27 22 17 25 18 9 24 33 28 19
Wind_Direction
227 230 235 237 241 243 248 254 260 264 268 277 286 295 300 317 341 352 350 24 22 15 4 1 32 38 53 32 347 359 1 27 11 15 0 24 351 39 14 32 51 63 72 76 77
229 232 233 236 236 238 242 246 252 258 264 271 276 277 280 298 327 341 343 359 359 3 350 11 48 51 53 333 292 359 360 9 2 13 10 35 47 47 55 38 51 72 77 64 69
231 234 238 240 242 244 246 248 251 254 259 264 265 268 268 280 298 330 330 17 11 359 8 42 53 77 3 268 37 43 325 7 2 4 356 31 341 337 44 23 338 131 102 71 59
236 236 237 239 242 247 249 251 255 257 258 259 260 255 263 268 282 298 327 19 22 345 38 57 72 38 27 6 355 328 55 360 5 8 21 25 115 65 332 61 118 110 96 100 87
240 240 239 238 238 240 245 249 253 256 258 259 258 258 258 267 280 279 297 31 56 336 39 62 351 99 53 325 29 314 350 9 16 22 23 33 20 46 76 67 77 100 109 103 93
241 242 242 241 240 241 242 245 248 251 254 255 256 257 258 261 261 263 262 347 85 316 42 35 48 116 143 324 325 339 3 12 28 24 30 31 46 56 80 94 119 122 104 92 81
240 240 241 242 244 244 244 245 246 247 249 252 256 260 259 253 256 253 247 251 138 295 19 58 54 212 95 140 94 222 334 268 36 20 18 26 59 64 57 71 97 94 89 71 69
240 241 240 240 241 244 246 247 249 251 250 252 257 259 256 254 252 247 240 236 196 254 312 21 71 98 111 282 223 264 28 36 21 359 353 8 60 67 72 80 87 72 60 47 19
241 241 241 242 243 244 244 246 247 248 251 253 255 257 259 257 255 251 243 236 225 231 287 316 74 59 93 259 304 313 54 14 335 20 8 2 63 47 66 77 40 47 23 355 3
244 244 243 243 244 245 246 247 248 248 250 250 252 256 262 260 255 253 254 246 232 218 246 272 197 114 65 305 317 33 6 330 357 11 18 92 28 30 45 53 56 27 36 22 19
242 244 245 244 245 245 245 245 246 248 251 251 254 255 240 256 257 253 250 252 247 230 239 253 247 103 299 318 321 58 298 276 217 309 14 103 49 59 58 15 46 62 64 57 48
244 243 243 243 243 244 244 245 245 246 246 248 246 249 247 251 251 253 255 249 245 235 230 243 242 141 226 280 271 160 277 290 295 294 310 348 256 204 332 23 33 42 41 8 3
246 245 246 245 244 243 242 243 244 244 242 246 248 247 246 245 251 250 253 249 242 237 236 238 240 250 222 254 268 266 262 317 326 342 271 300 242 187 201 258 324 4 332 329 343
246 246 247 247 246 245 244 242 242 242 243 244 242 242 243 244 247 251 247 249 240 238 232 235 204 194 252 268 284 242 291 281 286 304 272 270 245 180 201 159 330 356 25 9 360
246 246 246 245 246 247 245 244 242 242 241 243 239 244 243 244 246 247 246 246 240 233 232 231 239 240 228 216 262 211 270 289 269 274 261 279 285 306 121 128 91 353 3 11 4
247 245 244 243 243 243 243 241 239 237 239 247 247 237 239 237 243 246 246 245 237 236 232 229 225 239 239 220 262 244 258 255 326 12 265 287 296 301 341 73 359 355 352 348 345
249 247 245 243 242 240 238 236 234 232 230 250 253 240 235 235 240 243 240 244 242 243 243 239 239 244 242 238 240 254 252 256 293 280 291 334 264 281 9 1 95 285 333 331 337
249 248 246 244 242 239 236 233 233 223 231 250 247 247 237 237 237 240 243 238 236 236 231 241 250 252 265 259 238 247 246 260 282 306 339 300 250 330 32 132 189 293 325 330 341
249 248 245 243 240 236 234 231 224 217 221 233 243 238 239 238 239 237 244 242 236 231 232 230 258 277 274 247 239 234 225 269 273 287 301 291 8 154 154 208 266 1 330 332 333
245 243 241 239 237 233 232 226 206 201 237 229 235 222 251 248 238 237 241 244 238 236 229 218 222 218 256 265 238 235 204 246 273 296 300 312 305 320 329 284 262 338 335 335 342
244 243 236 232 232 229 226 218 214 226 237 236 230 205 218 189 254 241 234 233 249 230 235 231 226 225 226 251 243 235 235 211 240 264 266 290 309 343 305 283 334 318 328 319 318
246 242 231 228 225 220 217 216 214 219 242 229 225 223 215 190 198 235 221 249 229 242 223 235 235 232 232 243 262 219 242 237 239 242 287 309 289 16 344 31 310 304 316 287 294
245 242 233 228 228 222 217 223 224 235 239 225 222 225 229 214 215 210 213 221 219 230 238 216 239 230 227 235 238 242 222 232 234 237 228 270 239 303 276 291 303 306 308 285 282
240 235 231 230 227 229 215 230 240 239 236 229 224 221 219 224 221 223 215 229 233 231 231 225 221 232 229 227 229 266 253 235 227 238 251 263 276 125 253 286 303 289 300 274 275
235 228 230 225 222 226 227 216 233 236 243 234 231 231 228 229 232 237 220 200 263 262 242 237 236 227 229 222 224 236 251 241 233 229 229 249 257 244 268 266 305 287 278 299 291
239 239 239 233 233 227 220 228 228 236 240 245 237 233 233 235 227 200 216 224 242 260 250 235 236 227 233 230 225 235 229 245 252 237 214 234 249 286 304 258 302 304 299 289 285
265 248 236 231 232 233 227 230 231 230 230 232 229 225 217 224 230 206 206 197 219 227 245 233 224 230 235 241 230 239 233 232 240 245 240 235 243 262 258 262 251 291 289 283 267
Height
5901 5902 5904 5905 5907 5908 5910 5911 5912 5912 5913 5913 5914 5914 5914 5913 5913 5912 5911 5910 5909 5908 5907 5907 5906 5906 5904 5903 5902 5900 5889 5894 5894 5894 5891 5890 5891 5889 5888 5888 5887 5888 5889 5889 5889
5898 5900 5902 5903 5905 5906 5908 5909 5909 5910 5911 5911 5912 5912 5912 5912 5912 5912 5911 5910 5909 5908 5907 5907 5907 5905 5904 5905 5906 5902 5902 5901 5898 5896 5895 5892 5892 5890 5887 5889 5889 5890 5890 5890 5890
5896 5898 5900 5901 5903 5904 5905 5907 5907 5908 5909 5910 5910 5911 5911 5911 5912 5911 5910 5909 5909 5908 5908 5908 5906 5906 5906 5906 5906 5903 5906 5902 5901 5900 5897 5896 5894 5891 5882 5889 5889 5891 5891 5891 5892
5894 5896 5898 5899 5901 5902 5903 5904 5905 5906 5907 5908 5909 5909 5910 5910 5913 5911 5910 5909 5909 5908 5908 5908 5907 5905 5909 5907 5906 5903 5896 5904 5903 5899 5898 5895 5892 5892 5889 5891 5893 5893 5890 5892 5891
5891 5893 5895 5897 5899 5900 5901 5902 5903 5904 5905 5906 5907 5908 5909 5910 5910 5910 5909 5909 5909 5908 5908 5908 5907 5909 5912 5901 5905 5910 5907 5906 5903 5901 5899 5897 5895 5891 5893 5893 5892 5892 5892 5892 5892
5888 5890 5892 5894 5896 5897 5898 5900 5901 5902 5903 5904 5905 5906 5907 5908 5908 5909 5908 5909 5909 5907 5907 5907 5906 5908 5911 5915 5914 5912 5908 5906 5903 5903 5900 5898 5896 5896 5895 5895 5895 5894 5894 5893 5893
5884 5886 5888 5890 5892 5894 5896 5897 5899 5900 5901 5902 5903 5903 5905 5906 5906 5907 5907 5908 5908 5906 5906 5906 5907 5907 5908 5913 5912 5902 5905 5891 5904 5903 5902 5900 5898 5896 5895 5897 5897 5896 5895 5894 5894
5880 5882 5885 5887 5889 5891 5893 5894 5895 5897 5898 5899 5900 5901 5902 5903 5904 5905 5906 5907 5907 5906 5905 5906 5907 5908 5908 5904 5911 5904 5903 5904 5905 5905 5903 5902 5902 5900 5899 5899 5899 5898 5897 5896 5896
5875 5877 5880 5882 5885 5887 5889 5891 5892 5894 5895 5896 5897 5899 5900 5901 5902 5903 5904 5905 5906 5905 5905 5906 5907 5908 5907 5909 5910 5906 5900 5906 5907 5906 5904 5901 5877 5901 5902 5901 5900 5899 5898 5898 5898
5870 5873 5875 5878 5880 5882 5884 5886 5888 5890 5892 5893 5895 5898 5898 5899 5899 5901 5902 5903 5904 5905 5905 5906 5907 5908 5909 5905 5910 5910 5905 5912 5908 5907 5906 5905 5905 5904 5904 5902 5901 5901 5900 5900 5900
5864 5867 5869 5872 5875 5877 5880 5882 5885 5887 5889 5890 5893 5893 5896 5896 5898 5899 5900 5902 5903 5904 5904 5905 5906 5907 5913 5913 5909 5914 5918 5911 5910 5909 5909 5904 5906 5905 5904 5904 5903 5902 5902 5902 5902
5859 5862 5864 5867 5869 5872 5874 5876 5880 5883 5884 5885 5888 5890 5892 5893 5896 5897 5898 5901 5901 5902 5903 5904 5905 5907 5914 5915 5912 5914 5913 5911 5905 5910 5911 5907 5906 5879 5906 5906 5904 5903 5903 5904 5903
5853 5856 5858 5861 5863 5866 5869 5871 5874 5877 5880 5881 5884 5886 5889 5891 5892 5895 5896 5898 5900 5901 5902 5903 5905 5908 5912 5914 5911 5912 5911 5904 5911 5910 5910 5909 5907 5904 5902 5905 5906 5902 5902 5902 5902
5847 5850 5852 5855 5858 5859 5863 5866 5869 5871 5875 5877 5879 5880 5885 5887 5890 5891 5894 5896 5898 5899 5900 5901 5903 5906 5911 5912 5910 5911 5907 5909 5911 5911 5910 5898 5897 5903 5897 5898 5905 5903 5901 5900 5900
5841 5843 5846 5848 5851 5854 5857 5860 5863 5867 5870 5869 5871 5879 5880 5884 5884 5889 5890 5892 5896 5896 5898 5901 5901 5903 5904 5909 5909 5908 5911 5905 5906 5908 5908 5893 5895 5897 5896 5890 5899 5903 5903 5902 5901
5834 5837 5839 5842 5845 5848 5851 5854 5858 5863 5865 5864 5865 5872 5875 5879 5880 5882 5886 5890 5892 5893 5894 5896 5898 5901 5901 5903 5904 5905 5905 5904 5904 5906 5898 5893 5895 5899 5895 5896 5898 5899 5902 5902 5900
5828 5831 5833 5836 5839 5842 5845 5849 5854 5856 5861 5861 5863 5866 5870 5873 5876 5878 5882 5885 5888 5890 5893 5894 5895 5897 5898 5899 5902 5902 5904 5903 5903 5886 5895 5899 5897 5892 5894 5896 5893 5901 5900 5900 5900
5822 5825 5827 5829 5833 5836 5839 5844 5847 5855 5856 5859 5857 5861 5866 5869 5871 5873 5876 5879 5883 5886 5889 5891 5894 5895 5898 5897 5898 5900 5904 5904 5902 5899 5896 5899 5895 5892 5892 5894 5900 5900 5901 5900 5900
5816 5818 5821 5823 5826 5829 5833 5837 5844 5847 5851 5853 5852 5856 5861 5864 5867 5868 5870 5875 5878 5882 5885 5889 5893 5896 5891 5894 5896 5898 5899 5904 5903 5905 5907 5892 5888 5893 5886 5893 5893 5898 5899 5899 5899
5811 5812 5815 5817 5820 5823 5827 5832 5836 5838 5838 5840 5849 5854 5859 5863 5863 5864 5866 5870 5873 5876 5879 5883 5887 5891 5893 5889 5892 5894 5898 5903 5905 5902 5904 5898 5896 5893 5890 5895 5883 5893 5898 5898 5899
5806 5807 5810 5811 5814 5818 5823 5827 5830 5832 5832 5838 5843 5846 5852 5859 5862 5861 5863 5868 5869 5872 5875 5878 5881 5886 5889 5887 5889 5891 5893 5895 5900 5899 5900 5900 5886 5894 5893 5894 5894 5893 5896 5897 5897
5801 5802 5805 5807 5811 5813 5817 5822 5824 5824 5827 5832 5836 5838 5842 5848 5853 5858 5859 5864 5867 5866 5869 5873 5875 5878 5884 5889 5885 5887 5892 5893 5896 5899 5900 5900 5897 5893 5889 5889 5894 5892 5892 5893 5894
5795 5797 5801 5804 5807 5809 5813 5817 5818 5820 5823 5828 5830 5834 5839 5842 5845 5848 5854 5859 5861 5861 5862 5867 5869 5872 5876 5883 5885 5883 5885 5889 5891 5895 5895 5892 5897 5888 5894 5892 5892 5889 5889 5889 5890
5790 5792 5795 5799 5801 5804 5806 5813 5813 5815 5818 5821 5825 5828 5831 5834 5838 5842 5848 5854 5853 5852 5854 5859 5862 5866 5871 5877 5883 5881 5881 5883 5887 5891 5895 5895 5893 5880 5890 5883 5887 5888 5887 5886 5886
5783 5784 5785 5792 5797 5800 5802 5804 5809 5810 5811 5816 5819 5822 5826 5830 5833 5837 5843 5846 5847 5848 5850 5853 5856 5860 5865 5870 5874 5878 5879 5878 5880 5884 5888 5893 5884 5891 5888 5878 5882 5883 5886 5885 5884
5776 5777 5783 5787 5789 5792 5796 5799 5802 5806 5809 5811 5813 5817 5820 5824 5828 5835 5836 5842 5845 5842 5844 5847 5850 5853 5856 5861 5865 5869 5873 5875 5875 5876 5879 5883 5885 5881 5876 5883 5883 5877 5877 5880 5881
5771 5775 5777 5780 5782 5787 5791 5794 5796 5799 5802 5803 5807 5809 5815 5820 5821 5822 5825 5827 5830 5835 5836 5841 5844 5847 5849 5855 5858 5861 5864 5868 5870 5873 5874 5877 5881 5884 5880 5880 5884 5879 5871 5872 5876